Change the Weather History Date:

Sunday, November 18, 2012

  Actual Average (KBAD) Record (KBAD)
Temperature  
Mean Temperature 52 °F -  
Max Temperature 68 °F 63 °F 75 °F (2003)
Min Temperature 36 °F 43 °F 23 °F (2014)
Degree Days  
Heating Degree Days 13    
Growing Degree Days 2 (Base 50)    
Moisture  
Dew Point 37 °F    
Average Humidity 62    
Maximum Humidity 92    
Minimum Humidity 27    
Precipitation  
Precipitation 0.00 in - - ()
Sea Level Pressure  
Sea Level Pressure 30.32 in    
Wind  
Wind Speed 1 mph ()    
Max Wind Speed 7 mph    
Max Gust Speed -    
Visibility 10.0 miles    
Events      
Averages and records for this station are not official NWS values.
T = Trace of Precipitation, MM = Missing Value Source: Averaged Metar Reports

Daily Weather History Graph

Daily Weather History Graph

Search for Another Location

Airport or City:

Trip Planner

Search our weather history database for the weather conditions in past years. The results will help you decide how hot, cold, wet, or windy it might be!

Date:

Astronomy

Nov. 18, 2012 Rise Set
Actual Time 6:46 AM CST 5:10 PM CST
Civil Twilight 6:19 AM CST 5:36 PM CST
Nautical Twilight 5:50 AM CST 6:06 PM CST
Astronomical Twilight 5:20 AM CST 6:35 PM CST
Moon 11:16 AM CST (11/18) 10:25 PM CST (11/18)
Length of Visible Light 11h 16m
Length of Day
10h 24m
Waxing Crescent, 30% of the Moon is Illuminated
Nov 18
Waxing Crescent
Nov 20
First Quarter
Nov 28
Full
Dec 6
Last Quarter
Dec 13
New

Hourly Weather History & Observations

Time (CST) Temp. Windchill Dew Point Humidity Pressure Visibility Wind Dir Wind Speed Gust Speed Precip Events Conditions
12:15 AM 44.4 °F - 35.8 °F 72% 30.35 in 10.0 mi Calm Calm - N/A   Clear
12:35 AM 44.1 °F - 35.8 °F 73% 30.36 in 10.0 mi Calm Calm - N/A   Clear
12:55 AM 41.2 °F - 36.5 °F 83% 30.36 in 10.0 mi Calm Calm - N/A   Clear
1:15 AM 40.5 °F - 36.7 °F 86% 30.35 in 10.0 mi Calm Calm - N/A   Clear
1:35 AM 39.4 °F - 36.0 °F 88% 30.35 in 10.0 mi Calm Calm - N/A   Clear
1:55 AM 38.3 °F - 35.2 °F 89% 30.35 in 10.0 mi Calm Calm - N/A   Clear
2:15 AM 38.3 °F - 35.4 °F 89% 30.36 in 10.0 mi Calm Calm - N/A   Clear
2:35 AM 37.8 °F - 35.6 °F 92% 30.36 in 10.0 mi Calm Calm - N/A   Clear
2:55 AM 36.7 °F - 34.5 °F 92% 30.35 in 10.0 mi Calm Calm - N/A   Clear
3:15 AM 36.7 °F - 34.5 °F 92% 30.35 in 10.0 mi Calm Calm - N/A   Clear
3:35 AM 36.1 °F - 33.8 °F 91% 30.34 in 10.0 mi Calm Calm - N/A   Clear
3:55 AM 37.0 °F - 34.9 °F 92% 30.34 in 10.0 mi Calm Calm - N/A   Clear
4:15 AM 36.7 °F - 34.2 °F 91% 30.34 in 10.0 mi Calm Calm - N/A   Clear
4:35 AM 38.7 °F 36.3 °F 35.1 °F 87% 30.33 in 10.0 mi East 3.5 mph - N/A   Clear
5:15 AM 40.3 °F - 35.2 °F 82% 30.34 in 10.0 mi Calm Calm - N/A   Clear
5:35 AM 39.6 °F - 35.4 °F 85% 30.34 in 10.0 mi Calm Calm - N/A   Clear
5:55 AM 39.7 °F - 36.0 °F 86% 30.34 in 10.0 mi Calm Calm - N/A   Clear
6:15 AM 38.8 °F - 35.2 °F 87% 30.34 in 10.0 mi Calm Calm - N/A   Clear
6:35 AM 39.0 °F - 35.6 °F 88% 30.34 in 10.0 mi Calm Calm - N/A   Clear
6:55 AM 39.0 °F - 36.0 °F 89% 30.33 in 10.0 mi Calm Calm - N/A   Clear
7:15 AM 40.1 °F - 35.6 °F 84% 30.34 in 10.0 mi Calm Calm - N/A   Clear
7:35 AM 42.3 °F 40.5 °F 36.7 °F 81% 30.34 in 10.0 mi ESE 3.5 mph - N/A   Clear
7:55 AM 46.2 °F 44.1 °F 38.8 °F 75% 30.36 in 10.0 mi ESE 4.6 mph - N/A   Clear
8:15 AM 48.9 °F - 39.0 °F 69% 30.36 in 10.0 mi ESE 3.5 mph - N/A   Clear
8:35 AM 51.4 °F - 39.6 °F 64% 30.36 in 10.0 mi Calm Calm - N/A   Clear
8:55 AM 54.7 °F - 39.7 °F 57% 30.36 in 10.0 mi ESE 4.6 mph - N/A   Clear
9:15 AM 57.6 °F - 39.4 °F 51% 30.37 in 10.0 mi ESE 3.5 mph - N/A   Clear
9:35 AM 59.2 °F - 38.7 °F 47% 30.37 in 10.0 mi SE 4.6 mph - N/A   Clear
9:55 AM 60.8 °F - 37.6 °F 42% 30.37 in 10.0 mi SSE 4.6 mph - N/A   Clear
10:15 AM 61.9 °F - 36.7 °F 39% 30.37 in 10.0 mi ESE 4.6 mph - N/A   Clear
10:35 AM 61.5 °F - 36.5 °F 39% 30.37 in 10.0 mi SSE 4.6 mph - N/A   Clear
10:55 AM 63.7 °F - 35.8 °F 35% 30.37 in 10.0 mi SSE 4.6 mph - N/A   Clear
11:15 AM 64.4 °F - 35.6 °F 34% 30.36 in 10.0 mi ESE 4.6 mph - N/A   Clear
11:35 AM 64.4 °F - 34.5 °F 33% 30.34 in 10.0 mi SSE 4.6 mph - N/A   Clear
11:55 AM 65.7 °F - 34.7 °F 32% 30.33 in 10.0 mi East 5.8 mph - N/A   Clear
12:15 PM 66.6 °F - 34.0 °F 30% 30.32 in 10.0 mi East 4.6 mph - N/A   Clear
12:35 PM 67.1 °F - 34.3 °F 30% 30.32 in 10.0 mi East 4.6 mph - N/A   Clear
12:55 PM 67.3 °F - 35.2 °F 31% 30.32 in 10.0 mi North - - N/A   Clear
1:15 PM 67.1 °F - 34.2 °F 30% 30.31 in 10.0 mi North - - N/A   Clear
1:35 PM 67.3 °F - 35.4 °F 31% 30.29 in 10.0 mi ESE 4.6 mph - N/A   Clear
2:15 PM 68.5 °F - 35.1 °F 29% 30.28 in 10.0 mi SE 4.6 mph - N/A   Clear
2:35 PM 68.5 °F - 35.1 °F 29% 30.28 in 10.0 mi Calm Calm - N/A   Clear
2:55 PM 68.9 °F - 33.8 °F 27% 30.28 in 10.0 mi SE 3.5 mph - N/A   Clear
3:15 PM 68.5 °F - 34.0 °F 28% 30.28 in 10.0 mi Calm Calm - N/A   Clear
3:35 PM 68.2 °F - 33.8 °F 28% 30.28 in 10.0 mi Calm Calm - N/A   Clear
3:55 PM 68.0 °F - 34.7 °F 29% 30.27 in 10.0 mi SE 6.9 mph - N/A   Clear
4:15 PM 67.1 °F - 35.6 °F 31% 30.27 in 10.0 mi ESE 3.5 mph - N/A   Clear
4:35 PM 66.2 °F - 36.0 °F 33% 30.27 in 10.0 mi East 4.6 mph - N/A   Clear
4:55 PM 64.9 °F - 35.6 °F 34% 30.27 in 10.0 mi Calm Calm - N/A   Clear
5:15 PM 58.6 °F - 40.3 °F 51% 30.27 in 10.0 mi Calm Calm - N/A   Clear
5:35 PM 56.5 °F - 39.9 °F 54% 30.27 in 10.0 mi Calm Calm - N/A   Clear
5:55 PM 54.5 °F - 40.8 °F 60% 30.27 in 10.0 mi Calm Calm - N/A   Clear
6:15 PM 52.7 °F - 42.1 °F 67% 30.28 in 10.0 mi Calm Calm - N/A   Clear
6:35 PM 51.3 °F - 41.7 °F 70% 30.28 in 10.0 mi Calm Calm - N/A   Clear
6:55 PM 50.0 °F - 41.7 °F 73% 30.28 in 10.0 mi Calm Calm - N/A   Clear
7:15 PM 49.1 °F - 41.4 °F 75% 30.29 in 10.0 mi Calm Calm - N/A   Clear
7:35 PM 49.3 °F - 40.3 °F 71% 30.29 in 10.0 mi Calm Calm - N/A   Clear
7:55 PM 48.4 °F - 40.6 °F 75% 30.29 in 10.0 mi Calm Calm - N/A   Clear
8:15 PM 48.0 °F - 40.1 °F 74% 30.30 in 10.0 mi Calm Calm - N/A   Clear
8:35 PM 48.2 °F - 39.6 °F 72% 30.31 in 10.0 mi Calm Calm - N/A   Clear
8:55 PM 46.4 °F - 39.9 °F 78% 30.31 in 10.0 mi Calm Calm - N/A   Clear
9:15 PM 45.7 °F - 39.2 °F 78% 30.30 in 10.0 mi Calm Calm - N/A   Clear
9:35 PM 45.9 °F - 39.7 °F 79% 30.31 in 10.0 mi Calm Calm - N/A   Clear
9:55 PM 47.3 °F - 38.5 °F 71% 30.30 in 10.0 mi Calm Calm - N/A   Clear
10:15 PM 48.7 °F - 37.6 °F 65% 30.30 in 10.0 mi East 3.5 mph - N/A   Clear
10:35 PM 48.7 °F - 37.4 °F 65% 30.31 in 10.0 mi Calm Calm - N/A   Clear
10:55 PM 49.3 °F - 37.2 °F 63% 30.30 in 10.0 mi Calm Calm - N/A   Clear
11:15 PM 48.2 °F - 37.2 °F 66% 30.30 in 10.0 mi Calm Calm - N/A   Clear
11:35 PM 49.6 °F - 36.9 °F 61% 30.30 in 10.0 mi Calm Calm - N/A   Clear
11:55 PM 48.6 °F - 37.2 °F 65% 30.29 in 10.0 mi East 3.5 mph - N/A   Clear